Location: Kawakawa
(35.3830°S, 174.0670°E)
Time: 03:53:28
(UTC+13:00)

Altair - Pass Details

Date: 07 December 2019
Orbit: 1502 x 1682 km, 47.2° (Epoch: 26 January)

Event Time Altitude Azimuth Distance (km) Brightness Sun altitude
Rises 08:22:38 0° 2° (N) 4,715 10.0 26.2°
Reaches altitude 10° 08:27:04 10° 20° (NNE) 3,774 9.8 27.1°
Maximum altitude 08:32:46 17° 57° (ENE) 3,267 10.2 28.2°
Drops below altitude 10° 08:38:34 10° 94° (E) 3,879 11.3 29.4°
Sets 08:43:10 0° 112° (ESE) 4,902 11.2 30.3°
